TimePDT,TemperatureF,Dew PointF,Humidity,Sea Level PressureIn,VisibilityMPH,Wind Direction,Wind SpeedMPH,Gust SpeedMPH,PrecipitationIn,Events,Conditions,WindDirDegrees,DateUTC
12:10 AM,41.0,15.8,36,30.09,10.0,NW,10.4,16.1,N/A,,Clear,310,2013-05-22 07:10:00
12:30 AM,41.0,17.6,39,30.09,10.0,NW,5.8,-,N/A,,Clear,310,2013-05-22 07:30:00
12:50 AM,41.0,17.6,39,30.10,10.0,WNW,6.9,-,N/A,,Clear,300,2013-05-22 07:50:00
1:10 AM,41.0,19.4,42,30.10,10.0,NW,8.1,-,N/A,,Clear,310,2013-05-22 08:10:00
1:30 AM,39.2,19.4,45,30.09,10.0,WNW,4.6,-,N/A,,Clear,300,2013-05-22 08:30:00
1:50 AM,39.2,19.4,45,30.09,10.0,NW,3.5,-,N/A,,Clear,310,2013-05-22 08:50:00
2:10 AM,37.4,19.4,48,30.09,10.0,WNW,4.6,-,N/A,,Clear,290,2013-05-22 09:10:00
2:30 AM,37.4,21.2,52,30.09,10.0,West,4.6,-,N/A,,Clear,280,2013-05-22 09:30:00
2:50 AM,35.6,23.0,60,30.09,10.0,West,3.5,-,N/A,,Clear,280,2013-05-22 09:50:00
3:10 AM,35.6,23.0,60,30.08,10.0,West,4.6,-,N/A,,Clear,270,2013-05-22 10:10:00
3:30 AM,35.6,21.2,56,30.08,10.0,West,3.5,-,N/A,,Clear,280,2013-05-22 10:30:00
3:50 AM,32.0,21.2,64,30.08,10.0,NW,4.6,-,N/A,,Clear,320,2013-05-22 10:50:00
4:10 AM,33.8,21.2,60,30.07,10.0,Calm,Calm,-,N/A,,Clear,0,2013-05-22 11:10:00
4:30 AM,32.0,21.2,64,30.07,10.0,WNW,4.6,-,N/A,,Clear,300,2013-05-22 11:30:00
4:50 AM,32.0,21.2,64,30.07,10.0,West,4.6,-,N/A,,Clear,280,2013-05-22 11:50:00
5:10 AM,33.8,19.4,56,30.07,10.0,West,6.9,-,N/A,,Clear,280,2013-05-22 12:10:00
5:30 AM,32.0,19.4,60,30.08,10.0,West,6.9,-,N/A,,Clear,260,2013-05-22 12:30:00
5:50 AM,32.0,21.2,64,30.08,10.0,Calm,Calm,-,N/A,,Clear,0,2013-05-22 12:50:00
6:10 AM,32.0,21.2,64,30.08,10.0,WNW,3.5,-,N/A,,Clear,290,2013-05-22 13:10:00
6:30 AM,35.6,21.2,56,30.08,10.0,West,8.1,-,N/A,,Clear,270,2013-05-22 13:30:00
6:50 AM,35.6,23.0,60,30.09,10.0,West,3.5,-,N/A,,Clear,260,2013-05-22 13:50:00
7:10 AM,39.2,24.8,56,30.09,10.0,WNW,3.5,-,N/A,,Clear,300,2013-05-22 14:10:00
7:30 AM,41.0,26.6,57,30.09,10.0,WSW,3.5,-,N/A,,Clear,250,2013-05-22 14:30:00
7:50 AM,44.6,23.0,43,30.09,10.0,NNE,6.9,-,N/A,,Clear,20,2013-05-22 14:50:00
8:10 AM,44.6,23.0,43,30.09,10.0,NNE,10.4,17.3,N/A,,Clear,30,2013-05-22 15:10:00
8:30 AM,46.4,23.0,40,30.08,10.0,NE,11.5,18.4,N/A,,Clear,40,2013-05-22 15:30:00
8:50 AM,46.4,23.0,40,30.08,10.0,NE,11.5,16.1,N/A,,Clear,40,2013-05-22 15:50:00
9:10 AM,48.2,23.0,37,30.08,10.0,NNE,9.2,-,N/A,,Clear,30,2013-05-22 16:10:00
9:30 AM,48.2,23.0,37,30.07,10.0,NNE,9.2,-,N/A,,Clear,30,2013-05-22 16:30:00
9:50 AM,50.0,23.0,35,30.06,10.0,NE,11.5,16.1,N/A,,Clear,40,2013-05-22 16:50:00
10:10 AM,50.0,21.2,32,30.05,10.0,NNE,11.5,17.3,N/A,,Clear,30,2013-05-22 17:10:00
10:30 AM,51.8,21.2,30,30.05,10.0,NNE,8.1,-,N/A,,Clear,20,2013-05-22 17:30:00
10:50 AM,53.6,21.2,28,30.04,10.0,NNE,8.1,-,N/A,,Clear,30,2013-05-22 17:50:00
11:10 AM,53.6,19.4,26,30.04,10.0,NE,10.4,-,N/A,,Clear,50,2013-05-22 18:10:00
11:30 AM,55.4,19.4,25,30.04,10.0,NE,5.8,-,N/A,,Clear,40,2013-05-22 18:30:00
11:50 AM,55.4,19.4,25,30.03,10.0,ENE,6.9,-,N/A,,Clear,60,2013-05-22 18:50:00
12:10 PM,55.4,21.2,26,30.03,10.0,NNE,9.2,-,N/A,,Clear,30,2013-05-22 19:10:00
12:30 PM,57.2,17.6,21,30.02,10.0,North,4.6,16.1,N/A,,Clear,10,2013-05-22 19:30:00
12:50 PM,57.2,15.8,20,30.02,10.0,NNW,8.1,-,N/A,,Clear,340,2013-05-22 19:50:00
1:10 PM,57.2,17.6,21,30.01,10.0,NNE,6.9,-,N/A,,Clear,20,2013-05-22 20:10:00
1:30 PM,59.0,17.6,20,30.00,10.0,NE,10.4,17.3,N/A,,Clear,40,2013-05-22 20:30:00
1:50 PM,59.0,19.4,22,30.00,10.0,NE,6.9,-,N/A,,Clear,40,2013-05-22 20:50:00
2:10 PM,60.8,21.2,22,29.99,10.0,NNE,8.1,-,N/A,,Clear,30,2013-05-22 21:10:00
2:30 PM,60.8,19.4,20,29.99,10.0,NNE,9.2,16.1,N/A,,Clear,30,2013-05-22 21:30:00
2:50 PM,60.8,19.4,20,29.98,10.0,NNE,8.1,-,N/A,,Clear,30,2013-05-22 21:50:00
3:10 PM,60.8,19.4,20,29.98,10.0,NE,6.9,-,N/A,,Clear,40,2013-05-22 22:10:00
3:30 PM,62.6,23.0,22,29.97,10.0,NE,8.1,-,N/A,,Partly Cloudy,40,2013-05-22 22:30:00
3:50 PM,59.0,19.4,22,29.96,10.0,NNW,9.2,-,N/A,,Mostly Cloudy,340,2013-05-22 22:50:00
4:10 PM,59.0,21.2,23,29.96,10.0,NNE,4.6,-,N/A,,Mostly Cloudy,30,2013-05-22 23:10:00
4:30 PM,59.0,19.4,22,29.95,10.0,NNW,8.1,-,N/A,,Overcast,340,2013-05-22 23:30:00
4:50 PM,60.8,23.0,23,29.95,10.0,North,9.2,-,N/A,,Overcast,350,2013-05-22 23:50:00
5:10 PM,59.0,23.0,25,29.94,10.0,NW,8.1,16.1,N/A,,Scattered Clouds,320,2013-05-23 00:10:00
5:30 PM,59.0,23.0,25,29.94,10.0,NNW,6.9,-,N/A,,Scattered Clouds,340,2013-05-23 00:30:00
5:50 PM,59.0,24.8,27,29.94,10.0,North,6.9,-,N/A,,Overcast,350,2013-05-23 00:50:00
6:10 PM,59.0,23.0,25,29.94,10.0,NNW,9.2,-,N/A,,Overcast,340,2013-05-23 01:10:00
6:30 PM,57.2,24.8,29,29.93,10.0,North,9.2,-,N/A,,Overcast,350,2013-05-23 01:30:00
6:50 PM,57.2,24.8,29,29.93,10.0,NNW,10.4,-,N/A,,Overcast,330,2013-05-23 01:50:00
7:10 PM,59.0,26.6,29,29.94,10.0,NW,11.5,16.1,N/A,,Overcast,320,2013-05-23 02:10:00
7:30 PM,57.2,28.4,33,29.94,10.0,North,8.1,-,N/A,,Overcast,350,2013-05-23 02:30:00
7:50 PM,55.4,28.4,36,29.94,10.0,NNW,10.4,19.6,N/A,,Scattered Clouds,330,2013-05-23 02:50:00
8:10 PM,53.6,28.4,38,29.94,10.0,NNW,8.1,-,N/A,,Partly Cloudy,340,2013-05-23 03:10:00
8:30 PM,53.6,28.4,38,29.95,10.0,NNW,10.4,17.3,N/A,,Scattered Clouds,340,2013-05-23 03:30:00
8:50 PM,51.8,28.4,41,29.95,10.0,NNW,6.9,-,N/A,,Partly Cloudy,330,2013-05-23 03:50:00
9:10 PM,50.0,28.4,43,29.95,10.0,NNW,3.5,-,N/A,,Clear,340,2013-05-23 04:10:00
9:30 PM,50.0,28.4,43,29.96,10.0,NNW,8.1,-,N/A,,Clear,330,2013-05-23 04:30:00
9:50 PM,50.0,28.4,43,29.97,10.0,WNW,3.5,-,N/A,,Clear,300,2013-05-23 04:50:00
10:10 PM,48.2,30.2,50,29.97,10.0,Calm,Calm,-,N/A,,Clear,0,2013-05-23 05:10:00
10:30 PM,48.2,30.2,50,29.97,10.0,West,3.5,-,N/A,,Clear,270,2013-05-23 05:30:00
10:50 PM,46.4,30.2,53,29.97,10.0,West,5.8,-,N/A,,Clear,280,2013-05-23 05:50:00
11:10 PM,46.4,30.2,53,29.97,10.0,West,3.5,-,N/A,,Clear,270,2013-05-23 06:10:00
11:30 PM,46.4,32.0,57,29.97,10.0,WNW,5.8,-,N/A,,Clear,290,2013-05-23 06:30:00
11:50 PM,44.6,32.0,61,29.97,10.0,WNW,3.5,-,N/A,,Clear,300,2013-05-23 06:50:00